Погода в Юрочкином

Россия / Вологодская область     59°03′33″N   38°32′05″E
темп.,
°C
ветер,
м/с
пор.,
м/с
влажн.,
%
обл.,
%
осадки,
мм/ч
давл.,
гПа
погр.,
м
19 сентября, вс
вс1900:000всв23845 0.0 102940
03:000всв22825 0.0 102925
06:000всв25875 0.0 102996
09:00+4всв3771100 0.0 1029442
12:00+7всв4555100 0.0 10281073
15:00+8всв4655100 0.0 10281170
18:00+6всв3869100 0.0 1027369
21:00+4всв51275100 0.0 1028560
20 сентября, пн
пн2000:00+2в41180100 0.0 1029510
03:00+1всв41281100 0.0 1029587
06:00+1всв41280100 0.0 1029701
09:00+3в51167100 0.0 1029938
12:00+6в6956100 0.0 10281119
15:00+7всв5956100 0.0 10271200
18:00+6в51062100 0.0 10261021
21:00+5в41268100 0.0 1027845
21 сентября, вт
вт2100:00+3в41275100 0.0 1026627
03:00+3в41277100 0.0 1025579
06:00+3в51276100 0.0 1024612
09:00+5в51269100 0.0 1023672
12:00+7в51160100 0.0 10221064
15:00+5в51183100 0.6 1022940
18:00+5в51292100 0.9 1021810
21:00+5в51289100 1.1 1021734
22 сентября, ср
ср2200:00+5в41186100 0.0 1021581
03:00+5всв41187100 0.0 1021532
06:00+5всв41187100 0.0 1021503
09:00+5всв51280100 0.0 1021523
12:00+7всв5137098 0.0 1021580
15:00+9в51162100 0.0 1021923
18:00+7в41177100 0.2 1022733
21:00+7вюв31184100 0.5 1022582
23 сентября, чт
чт2300:00+6в2987100 0.3 1021393
03:00+6в2793100 1.3 1020307
06:00+6в2696100 1.2 1020270
09:00+6в2696100 1.8 1019297
12:00+6юв2596100 1.0 1018292
15:00+8юв2492100 1.0 1017387
18:00+8юв2691100 0.0 1017264
21:00+7вюв2595100 0.0 1016167